{"data":{"norad_id":63367,"intl_designator":"2025-063E","name":"STARLINK-33734","alt_names":[],"object_type":"PAYLOAD","status":"ACTIVE","operator":null,"country":"US","launch_date":"2025-03-26","launch_site_code":"AFWTR","launch_vehicle":null,"mission":null,"orbit_class":"UNKNOWN","rcs_meters":null,"size_class":null,"mass_kg":null,"dimensions":null,"purposes":["comms"],"wikipedia_slug":null,"has_3d_model":false,"image_url":null,"decayed_at":null,"tle_current":{"epoch":"2026-09-20T22:40:37.547328Z","epoch_age_seconds":120445,"freshness":"FRESH","line1":"1 63367U 25063E   26263.94487902  .00013242  00000+0  40244-3 0  9991","line2":"2 63367  53.1578 233.3382 0001558  88.1417 271.9764 15.34394103 84492","mean_motion":15.34394103,"eccentricity":0.0001558,"inclination_deg":53.1578,"raan_deg":233.3382,"arg_perigee_deg":88.1417,"mean_anomaly_deg":271.9764,"bstar":0.00040244,"rev_number":8449,"period_min":93.848118758053,"perigee_km":461.65496174982,"apogee_km":463.78657303013,"semimajor_km":6840.85776739,"source":"CELESTRAK","updated_at":"2026-09-21T09:00:34.972752Z"}}}